Tracking 18987 objects as of 25-Feb-2018
HD Live streaming from Space Station
objects crossing your sky now

NOAA 16 DEB

Track NOAA 16 DEB now!
10-day predictions


NORAD ID: 41418
Int'l Code: 2000-055KX
Perigee: 798.9 km
Apogee: 855.6 km
Inclination: 99.0 °
Period: 101.3 minutes
Semi major axis: 7198 km
RCS: Unknown
Launch date: September 21, 2000
Source: United States (US)
Launch site: AIR FORCE WESTERN TEST RANGE (AFWTR)

Note: This is SATELLITE DEBRIS
aabbcc
Your satellite tracking list
Your tracking list is empty




NASA's NSSDC Master Catalog

Two Line Element Set (TLE):
1 41418U 00055KX  18055.51494364  .00000686  00000-0  33154-3 0  9992
2 41418  98.9532 149.2717 0039395 277.5449  82.1253 14.21539373103603
Source of the keplerian elements: AFSPC